Temp
75 79 83 83 84 84 84 83 83 83 83 83 83 83 83 83 84 84 84 84 84 84 84 84 84 84 83 84 83 84 83 82 83 83 84 84 83 83 83 84 83 82 83
78 81 82 83 84 84 83 83 83 83 83 83 83 83 83 83 84 84 84 84 84 84 84 84 84 84 84 83 82 84 83 83 83 84 84 84 84 83 83 83 83 82 83
79 81 82 83 83 84 83 83 83 83 83 83 83 83 83 83 84 84 84 84 84 84 84 84 83 84 83 83 83 83 82 83 83 83 83 78 80 83 82 84 83 83 83
80 79 80 82 83 83 83 83 83 84 84 83 83 83 83 83 84 84 84 83 83 83 83 83 84 84 83 83 83 83 83 80 79 79 74 77 81 83 83 84 83 83 82
78 78 80 83 83 83 83 83 83 83 83 83 83 83 83 83 84 84 84 84 84 84 84 84 84 84 83 83 83 83 83 82 82 79 75 72 72 82 83 82 83 83 82
78 79 82 83 83 83 83 83 83 83 83 83 83 83 83 84 84 84 84 84 84 84 84 84 84 84 83 83 82 83 83 81 80 76 75 75 74 82 83 83 83 83 82
78 79 81 83 83 83 83 83 83 83 83 83 83 83 83 84 84 84 84 84 84 84 84 84 84 84 84 83 84 84 84 83 79 76 76 74 73 82 83 83 83 83 82
78 79 80 83 83 83 83 83 83 83 83 83 83 83 83 84 84 84 84 84 84 84 84 84 84 84 83 84 83 83 82 81 77 74 75 73 76 82 83 83 83 82 82
80 78 79 80 82 83 83 83 83 83 84 83 84 83 83 84 83 84 83 83 84 84 83 84 84 84 83 82 82 81 81 80 73 73 77 74 78 82 84 83 82 82 82
78 77 75 77 77 77 80 83 83 83 83 84 83 84 84 84 84 84 83 83 84 84 84 84 84 84 82 81 80 81 81 80 73 75 75 75 80 82 83 83 82 82 82
78 76 76 76 75 75 76 81 83 83 84 84 83 84 83 77 79 81 82 83 84 84 84 84 84 81 81 81 80 79 77 73 74 73 74 77 79 81 83 82 82 82 82
75 76 76 76 76 75 82 78 76 79 78 77 77 77 76 76 76 82 82 84 84 84 85 84 84 81 80 73 75 76 73 73 74 73 73 77 79 82 83 82 82 81 82
77 78 78 76 77 77 80 76 76 75 75 74 75 75 75 78 76 78 77 81 78 82 80 81 82 76 75 72 72 72 73 73 71 71 74 77 80 82 83 82 82 81 82
78 79 79 79 78 78 77 76 75 75 74 73 74 75 74 74 75 76 76 76 75 75 76 76 77 73 73 74 74 73 73 72 71 72 71 77 80 82 83 82 82 81 82
79 80 80 80 79 80 77 76 76 76 76 75 75 76 75 74 75 76 77 76 74 75 75 74 73 73 73 73 74 74 74 74 74 74 71 77 78 80 82 83 82 82 82
81 82 82 81 81 80 78 76 78 79 77 75 76 78 78 76 76 76 76 76 75 77 78 73 73 73 71 72 72 74 74 74 74 74 71 71 79 78 81 82 82 82 82
83 84 82 81 81 80 79 77 78 80 80 78 78 76 77 77 76 77 77 77 76 78 78 77 74 71 71 73 72 74 74 73 74 74 73 73 74 80 80 81 82 81 82
80 82 82 87 83 80 78 78 78 81 80 80 80 76 77 78 78 76 76 77 79 78 74 76 73 71 71 71 71 71 73 72 73 75 74 74 74 74 80 81 81 81 81
81 82 81 81 80 79 77 76 77 77 77 76 79 77 76 78 80 77 76 77 78 76 76 73 73 75 70 70 72 70 70 71 74 77 77 73 73 75 76 80 81 81 82
82 82 82 81 78 77 76 75 74 75 75 76 75 79 78 77 78 77 77 75 75 76 73 73 73 71 70 72 80 74 70 71 71 70 73 78 74 74 73 74 73 74 79
83 81 80 78 74 75 71 71 71 72 74 74 75 78 78 78 78 76 74 73 71 70 72 73 71 70 69 70 70 68 68 69 68 69 71 72 72 71 72 72 71 72 72
82 82 79 79 75 77 78 73 72 71 73 75 76 77 81 79 79 78 73 71 70 68 68 71 72 69 68 69 67 64 63 65 67 69 71 71 70 71 70 70 71 72 72
82 82 80 79 78 78 75 72 71 71 72 73 74 75 78 79 81 81 74 72 71 69 67 68 71 71 67 68 67 65 60 59 62 66 68 70 69 69 70 70 68 71 71
84 83 79 78 78 78 75 75 71 73 70 74 74 75 75 78 78 75 74 71 71 68 68 67 71 69 68 65 66 67 66 64 60 60 65 66 68 69 68 70 67 68 68
85 80 78 76 75 78 77 78 75 69 71 72 72 73 73 73 74 74 73 72 71 68 69 70 69 67 67 65 64 64 64 63 64 62 60 64 66 67 69 69 68 67 67
82 80 75 75 77 75 77 76 76 71 71 69 69 70 70 69 70 71 73 72 71 71 71 70 69 68 68 67 66 65 64 62 62 62 62 63 64 67 69 69 67 66 66
MSLP
1014.82 1014.69 1014.81 1014.88 1014.96 1015.24 1015.47 1015.74 1016.15 1016.17 1016.39 1016.74 1016.93 1016.84 1016.93 1017.18 1017.48 1017.77 1017.98 1018.14 1018.23 1018.33 1018.31 1018.40 1018.52 1018.58 1018.72 1018.81 1018.95 1019.02 1019.23 1019.23 1019.33 1019.46 1019.39 1019.03 1019.24 1019.28 1019.35 1019.50 1019.69 1019.87 1020.01
1014.16 1014.49 1014.66 1014.79 1014.96 1015.26 1015.47 1015.78 1016.10 1016.37 1016.58 1017.03 1017.16 1017.06 1017.25 1017.51 1017.78 1017.96 1018.09 1018.16 1018.27 1018.38 1018.45 1018.50 1018.44 1018.68 1018.87 1018.90 1018.97 1019.15 1019.23 1019.34 1019.52 1019.47 1019.45 1019.57 1019.46 1019.71 1019.67 1019.80 1019.85 1020.13 1020.34
1014.11 1014.36 1014.65 1014.79 1014.93 1015.27 1015.66 1015.97 1016.16 1016.31 1016.66 1017.05 1017.15 1017.10 1017.38 1017.64 1017.83 1017.98 1018.15 1018.31 1018.42 1018.51 1018.55 1018.78 1018.74 1018.79 1019.02 1019.16 1019.12 1019.19 1019.43 1019.53 1019.61 1019.80 1019.73 1019.77 1019.64 1019.97 1019.78 1019.87 1020.09 1020.35 1020.48
1013.88 1014.40 1014.67 1014.79 1014.98 1015.37 1015.78 1016.08 1016.16 1016.34 1016.89 1017.11 1017.12 1017.22 1017.49 1017.76 1017.93 1018.13 1018.26 1018.37 1018.49 1018.59 1018.78 1018.98 1018.90 1019.04 1019.23 1019.30 1019.40 1019.51 1019.42 1019.52 1019.64 1020.10 1020.49 1020.24 1020.02 1020.15 1020.26 1020.20 1020.20 1020.51 1020.64
1014.02 1014.47 1014.70 1014.88 1015.11 1015.45 1015.81 1016.03 1016.26 1016.55 1016.91 1017.03 1017.12 1017.35 1017.65 1017.87 1018.02 1018.19 1018.35 1018.42 1018.51 1018.74 1018.87 1018.86 1018.96 1019.19 1019.30 1019.32 1019.46 1019.47 1019.46 1019.49 1019.74 1020.14 1020.58 1020.47 1020.63 1020.52 1020.41 1020.60 1020.67 1020.80 1020.91
1014.16 1014.52 1014.74 1014.96 1015.24 1015.54 1015.83 1016.05 1016.33 1016.66 1016.88 1017.02 1017.17 1017.50 1017.81 1017.90 1018.14 1018.30 1018.40 1018.55 1018.64 1018.79 1018.95 1019.02 1019.12 1019.21 1019.41 1019.41 1019.40 1019.30 1019.12 1019.36 1019.68 1020.01 1020.30 1020.23 1020.12 1020.29 1020.49 1020.54 1020.91 1020.98 1021.03
1014.22 1014.54 1014.81 1015.01 1015.32 1015.65 1015.94 1016.25 1016.51 1016.69 1016.82 1016.94 1017.26 1017.62 1017.90 1017.98 1018.16 1018.34 1018.47 1018.68 1018.75 1018.84 1018.96 1018.98 1019.12 1019.32 1019.45 1019.38 1019.20 1019.11 1018.98 1019.07 1019.34 1019.71 1020.03 1020.28 1020.13 1020.15 1020.29 1020.51 1020.84 1021.21 1021.13
1013.99 1014.52 1014.79 1015.09 1015.46 1015.83 1016.19 1016.42 1016.67 1016.83 1016.90 1017.03 1017.38 1017.72 1017.90 1017.98 1018.13 1018.29 1018.42 1018.65 1018.75 1018.89 1018.97 1019.07 1019.35 1019.47 1019.40 1019.29 1019.21 1019.09 1019.13 1019.05 1019.25 1019.45 1019.68 1020.07 1020.22 1020.13 1020.21 1020.07 1020.65 1021.12 1021.27
1014.31 1014.79 1015.07 1015.23 1015.60 1015.90 1016.18 1016.42 1016.63 1016.84 1016.95 1017.13 1017.41 1017.71 1017.90 1017.98 1018.11 1018.27 1018.39 1018.52 1018.76 1018.75 1018.72 1019.08 1019.35 1019.43 1019.43 1019.21 1019.03 1019.04 1018.97 1019.03 1019.31 1019.46 1019.53 1019.77 1020.01 1020.12 1020.03 1020.16 1020.50 1020.90 1020.96
1014.64 1014.79 1015.06 1015.19 1015.57 1015.92 1016.25 1016.45 1016.53 1016.65 1016.88 1017.07 1017.36 1017.61 1017.79 1017.95 1018.10 1018.22 1018.33 1018.43 1018.57 1018.58 1018.68 1019.17 1019.36 1019.35 1019.26 1019.07 1018.95 1018.72 1018.32 1018.97 1019.13 1019.13 1019.58 1020.00 1020.03 1020.04 1020.10 1020.07 1020.25 1020.79 1021.03
1015.08 1015.20 1015.08 1015.18 1015.64 1016.07 1016.28 1016.38 1016.55 1016.78 1016.97 1017.20 1017.30 1017.48 1017.70 1017.89 1017.98 1018.19 1018.28 1018.27 1018.26 1018.28 1018.45 1019.12 1019.12 1019.31 1019.14 1019.15 1019.02 1018.39 1018.00 1018.33 1018.86 1018.77 1019.12 1019.41 1019.87 1020.09 1020.14 1020.22 1020.29 1020.50 1020.97
1014.79 1014.94 1015.13 1015.30 1015.50 1015.91 1015.99 1016.19 1016.50 1016.67 1016.89 1017.14 1017.33 1017.55 1017.73 1017.85 1017.99 1018.18 1018.32 1018.14 1018.11 1018.10 1018.24 1018.67 1018.67 1018.90 1018.99 1019.17 1018.88 1018.39 1017.99 1018.20 1018.41 1018.69 1018.93 1019.03 1019.30 1019.78 1020.06 1020.23 1020.44 1020.51 1020.84
1014.22 1014.61 1014.83 1015.16 1015.40 1015.68 1015.81 1016.17 1016.35 1016.55 1016.89 1017.14 1017.29 1017.51 1017.67 1017.86 1018.04 1018.21 1018.45 1018.20 1018.10 1018.06 1018.16 1018.68 1018.68 1018.78 1019.07 1019.15 1018.78 1018.31 1017.88 1017.96 1018.40 1018.67 1018.76 1019.05 1018.92 1019.14 1019.60 1020.03 1020.37 1020.52 1020.79
1014.08 1014.11 1014.61 1014.81 1015.19 1015.45 1015.70 1016.10 1016.34 1016.45 1016.63 1017.05 1017.27 1017.36 1017.61 1017.85 1017.97 1017.91 1018.07 1017.93 1018.04 1018.20 1018.36 1018.73 1018.55 1018.72 1018.72 1018.80 1018.61 1017.97 1017.38 1018.02 1018.00 1018.25 1018.76 1019.04 1019.15 1019.32 1019.51 1019.84 1020.08 1020.34 1020.60
1013.49 1013.76 1014.22 1014.68 1015.01 1015.03 1015.37 1015.89 1016.20 1016.37 1016.50 1016.64 1016.82 1016.98 1017.21 1017.52 1017.66 1017.54 1017.57 1017.75 1017.81 1017.96 1018.29 1018.32 1018.53 1018.54 1018.48 1018.76 1018.27 1017.87 1017.75 1017.66 1017.84 1017.96 1018.54 1019.01 1019.20 1019.18 1019.36 1019.42 1019.68 1019.99 1020.30
1012.61 1012.99 1013.79 1014.38 1014.48 1014.83 1015.12 1015.53 1015.82 1015.91 1016.04 1016.41 1016.54 1016.52 1016.66 1016.93 1017.05 1017.11 1017.16 1017.23 1017.41 1017.46 1017.54 1018.32 1018.35 1018.50 1018.43 1018.55 1018.46 1018.13 1017.93 1017.80 1017.68 1018.27 1018.50 1018.39 1018.16 1018.99 1019.16 1019.22 1019.41 1019.74 1020.00
1011.66 1011.97 1013.04 1013.70 1013.91 1014.55 1014.95 1015.12 1015.41 1015.48 1015.70 1016.07 1016.11 1016.17 1016.29 1016.52 1016.64 1016.70 1016.60 1016.70 1016.99 1017.11 1017.35 1017.83 1017.90 1018.62 1018.77 1018.87 1018.63 1018.27 1018.25 1018.05 1018.19 1018.45 1018.68 1018.38 1018.41 1018.33 1018.79 1018.92 1019.03 1019.33 1019.47
1011.20 1011.66 1012.40 1012.78 1013.49 1013.99 1014.25 1014.35 1014.75 1015.22 1015.46 1015.63 1015.81 1015.94 1016.08 1016.12 1016.21 1016.36 1016.36 1016.45 1016.24 1016.40 1016.96 1017.39 1017.83 1018.47 1018.53 1018.95 1018.84 1018.46 1018.34 1018.29 1018.19 1018.10 1018.29 1018.36 1018.45 1018.40 1018.28 1018.39 1018.57 1018.77 1018.86
1010.50 1011.06 1011.71 1012.15 1012.74 1013.44 1014.00 1014.06 1014.33 1014.70 1014.94 1015.39 1015.55 1015.71 1015.88 1015.81 1015.77 1016.11 1016.22 1016.24 1016.32 1016.41 1016.83 1017.11 1017.85 1017.97 1018.30 1018.69 1018.75 1018.57 1018.51 1018.64 1018.32 1018.02 1017.53 1017.69 1017.91 1017.68 1017.67 1017.75 1017.78 1018.23 1018.49
1010.18 1010.57 1011.09 1011.76 1012.31 1012.84 1013.38 1013.88 1014.22 1014.41 1014.75 1015.21 1015.39 1015.37 1015.41 1015.56 1015.62 1015.80 1015.93 1016.25 1016.40 1016.86 1016.93 1016.94 1017.46 1018.20 1018.42 1018.61 1018.41 1018.75 1018.74 1018.54 1018.46 1018.35 1017.76 1017.33 1017.64 1017.86 1017.75 1017.71 1017.93 1018.08 1018.29
1009.67 1010.22 1010.87 1011.50 1011.92 1012.33 1013.12 1013.90 1014.41 1014.58 1014.54 1014.79 1014.96 1014.93 1015.11 1015.02 1015.20 1015.44 1015.83 1016.52 1016.77 1016.91 1016.85 1017.13 1017.68 1018.12 1018.65 1018.61 1018.61 1018.78 1019.19 1019.28 1019.23 1018.72 1018.03 1017.89 1018.06 1018.17 1017.96 1018.08 1018.23 1018.18 1018.17
1008.80 1009.60 1010.25 1010.50 1011.09 1011.48 1011.93 1012.58 1013.30 1013.86 1014.05 1014.11 1014.18 1014.26 1014.36 1014.57 1014.59 1014.77 1015.35 1015.99 1016.50 1016.92 1017.07 1017.16 1017.18 1017.75 1018.06 1018.29 1018.68 1019.10 1019.31 1019.30 1019.15 1018.92 1018.71 1018.66 1018.65 1018.28 1018.50 1018.41 1018.30 1018.11 1018.20
1008.57 1009.08 1009.74 1010.03 1010.62 1011.16 1011.64 1012.41 1012.96 1013.44 1013.64 1013.80 1013.81 1013.90 1013.87 1013.88 1013.98 1013.97 1014.52 1014.96 1015.45 1016.01 1016.64 1016.96 1017.04 1017.22 1017.87 1018.29 1018.40 1018.69 1019.66 1019.57 1019.41 1019.25 1019.05 1018.76 1018.79 1018.85 1018.57 1018.39 1018.34 1018.42 1018.55
1008.11 1008.74 1009.34 1010.24 1010.70 1011.16 1011.55 1012.05 1012.44 1012.83 1013.27 1013.15 1013.10 1013.11 1013.22 1013.14 1013.40 1013.56 1013.91 1014.58 1015.06 1015.35 1015.78 1016.27 1016.47 1016.82 1017.25 1018.14 1018.36 1018.31 1018.64 1018.98 1019.28 1019.87 1019.53 1019.30 1019.16 1019.25 1019.06 1018.84 1018.84 1018.75 1018.79
1007.97 1008.67 1009.41 1009.65 1009.97 1010.59 1011.21 1011.61 1011.99 1012.44 1012.44 1012.43 1012.87 1012.94 1012.89 1012.76 1012.93 1013.35 1013.76 1014.25 1015.08 1015.39 1015.69 1015.79 1016.26 1016.81 1016.90 1017.53 1017.99 1018.45 1018.82 1018.94 1018.99 1019.24 1019.46 1019.42 1019.32 1019.20 1019.11 1019.07 1018.92 1018.88 1019.04
1008.23 1008.78 1009.07 1009.36 1009.29 1010.05 1010.77 1010.79 1011.28 1011.66 1012.11 1012.35 1012.67 1012.62 1013.02 1013.24 1013.15 1013.25 1013.61 1014.15 1014.09 1014.90 1015.20 1015.34 1015.90 1016.31 1016.57 1017.07 1017.65 1018.12 1018.26 1018.50 1018.66 1018.85 1019.30 1019.15 1018.82 1019.03 1019.21 1019.33 1019.14 1019.25 1019.36
Wind_Speed
7 8 13 13 16 16 15 16 16 16 16 14 12 14 15 15 15 14 14 13 13 12 11 9 8 9 10 9 8 8 7 7 8 8 8 13 12 12 13 13 13 8 13
12 11 14 14 16 16 15 14 15 15 15 13 12 14 14 14 14 13 13 12 12 11 10 8 9 9 10 8 9 9 8 9 7 9 9 10 12 13 13 14 13 10 12
13 11 12 15 17 17 15 14 14 15 14 13 13 14 13 14 13 13 13 13 11 10 9 9 9 9 10 9 9 8 8 10 8 7 7 2 6 12 12 12 14 15 12
13 10 10 14 16 16 15 14 14 14 13 12 13 13 13 13 13 13 14 14 12 11 11 10 10 10 10 9 8 8 7 12 10 7 3 3 1 11 8 9 13 12 11
11 7 11 15 16 18 16 14 13 14 13 12 12 13 13 12 12 13 14 14 13 12 12 11 10 10 10 9 8 8 7 9 8 9 2 1 1 9 12 10 15 14 13
12 10 14 17 17 17 16 15 14 13 12 13 13 12 12 12 12 13 13 12 12 12 12 11 11 9 9 8 7 6 6 6 6 4 4 1 3 11 12 12 13 14 14
12 10 12 17 16 16 15 15 14 13 14 14 13 12 12 11 12 12 12 12 11 10 10 9 9 8 7 7 9 7 6 4 3 3 1 2 2 13 15 13 13 13 13
14 12 12 16 15 15 15 13 13 13 13 13 13 12 12 12 11 12 12 12 11 10 8 8 8 7 6 9 10 10 11 9 7 5 4 1 5 11 15 16 14 15 15
11 10 9 11 13 15 15 15 14 13 13 13 12 12 13 12 12 12 11 11 10 9 9 8 8 8 12 10 11 15 10 10 6 3 5 1 6 12 15 16 15 15 16
10 9 7 9 7 7 8 16 15 15 13 14 14 13 13 12 12 12 10 9 10 10 9 7 6 9 12 12 14 11 12 13 6 6 3 2 8 13 15 16 17 15 14
9 8 8 10 8 7 6 9 12 14 14 14 13 14 11 4 6 9 10 12 12 12 10 8 8 16 12 12 9 7 1 4 4 3 3 2 5 13 15 15 16 16 16
13 12 10 10 10 9 8 7 6 7 5 5 6 6 4 5 5 7 9 14 13 13 12 11 11 18 11 3 2 3 0 4 1 2 2 6 10 16 17 15 15 16 17
16 11 13 11 10 11 8 6 4 3 3 3 6 6 5 4 3 4 3 5 5 11 4 4 4 4 5 4 4 3 3 1 2 1 4 12 14 20 19 17 15 15 16
15 15 13 12 11 10 5 6 5 4 5 4 5 6 4 3 4 5 4 5 4 3 2 4 4 5 5 5 6 5 3 4 3 1 2 10 9 12 17 17 17 17 17
16 14 13 13 12 11 10 6 5 5 5 6 6 7 5 4 5 5 5 5 4 3 4 4 5 7 6 4 4 3 3 4 4 2 2 2 7 12 16 18 20 19 17
18 16 14 13 12 10 10 9 7 6 6 5 6 7 9 5 5 5 5 5 5 4 4 4 8 6 4 4 4 4 4 4 5 1 2 5 15 11 17 19 19 18 17
17 18 17 14 13 12 10 9 7 8 7 6 7 7 7 6 6 7 5 5 4 5 6 7 6 4 2 1 4 3 3 5 5 3 4 4 5 14 17 19 18 17 18
10 17 15 14 14 12 9 9 6 9 6 7 6 5 7 7 6 5 4 4 3 3 5 7 8 5 4 3 4 4 3 4 8 8 5 6 4 4 11 18 18 16 17
13 16 14 12 15 12 8 6 6 7 6 5 6 5 7 7 7 5 4 3 1 3 4 5 3 6 3 3 5 4 4 5 7 6 9 7 6 6 6 14 16 14 15
12 15 16 13 12 10 6 5 3 3 2 4 4 6 8 5 6 5 4 2 4 4 4 3 5 3 3 5 5 5 2 2 2 4 2 4 3 2 2 4 3 4 8
13 15 15 12 9 9 4 4 3 3 3 2 4 8 7 7 7 7 2 4 4 3 5 5 4 5 3 2 2 1 3 3 1 3 2 3 3 2 3 4 2 2 3
17 16 14 15 12 10 9 5 4 4 3 3 4 7 11 10 9 8 8 7 8 6 5 4 5 3 2 1 3 2 1 3 3 3 1 3 2 2 2 3 3 3 4
15 16 15 16 15 12 9 4 3 3 1 2 4 3 8 11 12 11 9 9 9 6 7 6 5 6 4 1 2 4 2 4 2 2 3 1 3 1 1 3 4 4 4
15 13 12 11 13 11 9 9 7 6 5 4 4 4 6 11 9 10 11 8 7 5 6 5 5 4 5 4 0 1 1 3 4 2 1 0 3 4 3 2 3 4 5
13 11 9 11 11 12 13 11 9 5 5 4 1 3 5 5 9 8 7 5 6 4 5 7 6 6 3 4 3 2 1 1 0 2 2 3 2 3 2 4 4 3 4
8 8 8 12 14 11 13 12 12 11 8 5 5 4 3 3 4 5 5 5 3 5 5 6 5 6 5 4 4 4 4 4 4 3 2 3 4 3 3 3 3 3 3
Wind_Direction
173 161 154 150 151 145 137 128 127 119 115 116 117 106 101 101 102 106 111 117 114 119 121 124 121 118 112 109 115 122 118 129 134 153 158 152 162 155 156 151 136 130 131
150 159 152 148 150 147 138 134 128 123 121 131 127 113 109 110 110 112 113 116 118 121 122 125 122 114 105 105 91 97 105 121 130 151 154 161 164 159 161 147 141 142 141
149 154 151 148 147 145 139 138 129 126 130 133 128 116 114 110 115 116 117 119 119 120 118 118 114 112 104 93 93 89 89 110 117 134 141 133 167 160 147 153 141 140 142
143 150 150 144 144 144 142 137 129 127 136 132 123 118 117 119 119 115 115 114 119 119 113 113 120 113 105 97 85 86 99 102 100 83 34 56 170 152 143 155 143 139 140
143 145 155 146 144 148 146 140 138 139 139 136 128 127 125 128 122 121 123 123 120 116 120 123 120 116 111 100 89 83 86 112 92 124 206 84 347 154 164 173 155 149 147
148 150 150 149 148 149 151 151 148 147 149 137 135 135 133 130 131 125 131 130 126 128 126 123 123 120 107 97 96 99 102 72 99 115 148 286 47 167 165 164 152 158 156
152 156 151 150 147 151 155 157 156 154 148 144 141 140 138 141 132 138 138 141 137 139 138 134 124 108 98 88 72 58 42 54 48 9 215 203 322 175 172 163 160 167 159
151 154 155 149 146 148 146 147 152 155 149 144 146 146 142 143 147 147 150 150 155 155 155 146 127 108 75 60 59 74 69 48 39 16 81 117 284 184 174 164 165 171 171
145 148 148 143 150 157 154 157 153 157 155 154 152 151 154 159 159 159 164 166 166 172 176 161 136 113 89 89 88 109 118 119 108 77 28 47 240 190 179 168 172 180 177
149 147 149 143 142 144 159 158 161 161 160 158 162 164 166 166 166 172 175 183 183 192 195 161 133 103 115 105 119 137 166 127 128 109 98 48 237 203 190 180 178 183 185
155 166 163 153 150 154 156 167 167 163 166 167 169 175 173 174 182 188 188 198 198 202 204 167 165 136 136 104 115 136 283 111 141 122 135 169 271 220 204 191 187 185 194
170 180 177 168 166 161 168 167 166 174 172 165 175 182 168 186 201 199 204 205 210 212 213 193 183 161 152 131 118 184 359 76 66 204 204 200 211 217 214 201 199 192 198
180 180 181 175 172 170 173 170 172 167 163 174 177 185 192 197 217 216 203 230 218 224 223 176 193 169 153 170 202 237 201 56 43 353 320 322 240 199 210 204 206 204 208
183 187 186 177 171 180 155 173 181 181 174 174 197 197 180 209 220 223 198 217 213 234 225 159 168 160 198 182 210 195 163 179 193 109 321 0 344 207 214 210 208 210 213
182 186 186 179 180 184 164 178 177 195 190 190 187 196 186 197 216 211 206 209 221 193 182 193 145 168 195 161 212 215 267 245 230 194 138 305 289 269 234 219 215 212 212
176 184 179 187 181 184 178 174 188 194 196 184 197 205 198 193 201 181 202 205 203 208 180 156 157 182 201 142 194 223 235 271 263 110 171 210 245 259 252 225 222 213 217
179 180 173 180 176 180 191 176 187 200 187 197 200 205 201 187 196 191 192 196 172 193 133 155 165 97 197 171 229 208 247 267 273 224 203 239 229 238 246 232 219 214 215
145 171 172 175 183 179 181 180 176 201 186 197 201 194 211 194 193 193 202 209 221 181 145 132 143 151 191 195 197 218 225 265 266 264 218 207 214 237 228 222 226 217 213
160 167 164 165 166 171 176 159 164 161 163 179 197 190 213 203 196 179 219 222 155 145 148 155 129 131 135 167 176 208 223 236 243 265 260 190 197 219 202 221 220 215 215
166 170 173 169 169 166 163 150 141 129 156 154 193 209 202 208 205 195 205 161 132 150 157 127 127 117 147 191 172 174 206 216 311 286 234 153 139 169 186 113 141 167 242
172 172 179 169 179 157 148 150 167 191 171 187 190 201 220 203 195 203 149 159 162 166 159 147 118 144 180 216 112 33 131 132 182 10 353 80 66 16 93 88 132 208 222
182 183 173 184 177 178 172 166 154 165 205 193 194 194 208 209 194 194 161 163 168 154 163 178 165 154 112 155 142 68 325 342 2 357 76 125 159 110 83 98 98 88 97
188 182 182 186 182 183 174 135 101 102 136 199 227 197 207 204 204 198 174 170 176 164 182 191 181 162 147 205 211 150 112 222 127 326 2 149 156 274 71 82 82 86 108
196 183 182 178 182 184 172 179 173 180 187 218 206 200 204 208 199 180 176 177 184 182 168 185 173 158 135 170 213 205 132 156 164 173 238 211 210 179 169 151 139 111 104
187 182 178 188 180 180 184 189 189 177 184 204 256 184 186 167 150 166 155 190 219 196 206 164 151 163 152 146 144 144 190 70 356 139 192 178 153 205 197 184 168 136 138
161 179 186 192 192 172 188 187 192 187 184 155 176 166 125 100 92 93 163 214 175 177 174 171 173 169 160 146 166 192 182 170 188 170 169 219 165 198 171 202 164 150 150